Winnemucca, NV

7:35 PM PDT on August 29, 2016 (GMT -0700)
Winnemucca Municipal

Weather History for KWMC - July, 2013

Change the Weather History Date:

Tuesday, July 23, 2013

  Actual Average Record
Temperature  
Mean Temperature 83 °F 74 °F  
Max Temperature 97 °F 95 °F 107 °F (2003)
Min Temperature 69 °F 53 °F 38 °F (1973)
Degree Days  
Heating Degree Days 0 0  
Month to date heating degree days 0 6  
Since 1 June heating degree days 70 111  
Since 1 July heating degree days 0 6  
Cooling Degree Days 18 9  
Month to date cooling degree days 288 175  
Year to date cooling degree days 417 265  
Since 1 June cooling degree days 416 254  
Growing Degree Days 33 (Base 50)    
Moisture  
Dew Point 31 °F    
Average Humidity 21    
Maximum Humidity 33    
Minimum Humidity 9    
Precipitation  
Precipitation 0.00 in 0.01 in 0.65 in (1913)
Month to date precipitation 0.27 0.18  
Year to date precipitation 2.23 5.11  
Snow  
Snow 0.00 in 0.00 in 0.00 in (1877)
Month to date snowfall T 0.0  
Since 1 June snowfall T T  
Since 1 July snowfall T 0.0  
Snow Depth 0.00 in    
Sea Level Pressure  
Sea Level Pressure 29.90 in    
Wind  
Wind Speed 12 mph (ESE)    
Max Wind Speed 33 mph    
Max Gust Speed 44 mph    
Visibility 10 miles    
Events      
T = Trace of Precipitation, MM = Missing Value Source: NWS Daily Summary

Daily Weather History Graph

Daily Weather History Graph

Search for Another Location

Airport or City:

Trip Planner

Search our weather history database for the weather conditions in past years. The results will help you decide how hot, cold, wet, or windy it might be!

Date:

Astronomy

Jul. 23, 2013 Rise Set
Actual Time 5:39 AM PDT 8:15 PM PDT
Civil Twilight 5:07 AM PDT 8:47 PM PDT
Nautical Twilight 4:28 AM PDT 9:26 PM PDT
Astronomical Twilight 3:43 AM PDT 10:11 PM PDT
Moon 8:45 PM PDT (7/23) 6:54 AM PDT (7/23)
Length of Visible Light 15h 39m
Length of Day
14h 36m
Full, 98% of the Moon is Illuminated
Jul 23
Full
Jul 29
Last Quarter
Aug 6
New
Aug 14
First Quarter
Aug 20
Full

Hourly Weather History & Observations

Time (PDT) Temp. Dew Point Humidity Pressure Visibility Wind Dir Wind Speed Gust Speed Precip Events Conditions
12:56 AM 82.0 °F 18.0 °F 9% 29.82 in 10.0 mi NE 9.2 mph 20.7 mph N/A   Clear
1:56 AM 78.1 °F 21.0 °F 12% 29.85 in 10.0 mi ENE 9.2 mph - N/A   Clear
2:56 AM 77.0 °F 21.0 °F 12% 29.84 in 10.0 mi ENE 10.4 mph - N/A   Clear
3:56 AM 75.9 °F 19.9 °F 12% 29.86 in 10.0 mi ENE 13.8 mph 23.0 mph N/A   Clear
4:56 AM 75.9 °F 18.0 °F 11% 29.87 in 10.0 mi ENE 11.5 mph - N/A   Clear
5:56 AM 73.0 °F 19.0 °F 13% 29.88 in 10.0 mi ENE 4.6 mph - N/A   Clear
6:56 AM 73.9 °F 19.9 °F 13% 29.90 in 10.0 mi East 6.9 mph - N/A   Clear
7:56 AM 77.0 °F 19.9 °F 12% 29.91 in 10.0 mi NE 9.2 mph - N/A   Clear
8:56 AM 81.0 °F 21.0 °F 11% 29.94 in 10.0 mi NE 10.4 mph - N/A   Clear
9:56 AM 87.1 °F 23.0 °F 10% 29.93 in 10.0 mi NNE 8.1 mph - N/A   Clear
10:56 AM 88.0 °F 28.0 °F 12% 29.91 in 10.0 mi NE 6.9 mph - N/A   Clear
11:56 AM 91.9 °F 30.9 °F 11% 29.89 in 10.0 mi Variable 4.6 mph - N/A   Clear
12:56 PM 93.0 °F 28.0 °F 10% 29.88 in 10.0 mi NW 6.9 mph - N/A   Clear
1:56 PM 91.9 °F 25.0 °F 9% 29.88 in 10.0 mi Variable 5.8 mph - N/A   Clear
2:56 PM 93.0 °F 28.0 °F 10% 29.87 in 10.0 mi West 8.1 mph 17.3 mph N/A   Clear
3:56 PM 93.0 °F 33.1 °F 12% 29.85 in 10.0 mi WSW 17.3 mph 25.3 mph N/A   Clear
4:56 PM 93.0 °F 33.1 °F 12% 29.84 in 10.0 mi WSW 13.8 mph - N/A   Clear
5:56 PM 84.9 °F 42.1 °F 22% 29.90 in 4.0 mi SSE 31.1 mph 39.1 mph N/A   Haze
6:03 PM 84.2 °F 42.8 °F 23% 30.06 in 6.0 mi SSE 23.0 mph 39.1 mph N/A   Haze
6:56 PM 82.9 °F 46.0 °F 27% 29.90 in 10.0 mi SSE 17.3 mph 24.2 mph N/A   Clear
7:56 PM 80.1 °F 46.0 °F 30% 29.91 in 10.0 mi SE 9.2 mph - N/A   Clear
8:56 PM 82.0 °F 41.0 °F 23% 29.91 in 10.0 mi SSE 12.7 mph - N/A   Clear
9:56 PM 81.0 °F 43.0 °F 26% 29.91 in 10.0 mi SSE 21.9 mph 31.1 mph N/A   Clear
10:08 PM 80.6 °F 44.6 °F 28% 30.10 in 10.0 mi SE 24.2 mph 34.5 mph N/A   Clear
10:56 PM 77.0 °F 46.0 °F 33% 29.93 in 10.0 mi SSE 18.4 mph 26.5 mph N/A   Clear
11:56 PM 78.1 °F 45.0 °F 31% 29.92 in 10.0 mi South 17.3 mph 23.0 mph N/A   Clear